Flag for U.S.A. Weather past 2 weeks in Aurora, Colorado, U.S.A.

Now
87 °F

Scattered clouds.


Feels Like: 84 °F
Forecast: 58 / 87 °F
Wind: 6 mph from South

Location: Buckley Air Force Base

Current Time: Sep 1, 2015 at 5:16:30 PM

Latest Report: Sep 1, 2015 at 3:58 PM


Visibility: 10 mi

Pressure: 29.83 "Hg (24.79 "Hg at 1647m altitude)

Humidity: 19%

Dew point: 40 °F

Location of AuroraLocation

Historic Weather in Aurora — Graph

°F

Aurora temperature yesterday

Maximum temperature yesterday: 85 °F (at 1:58 PM)
Minimum temperature yesterday: 59 °F (at 10:58 PM)
Average temperature yesterday: 71 °F

Past Weeks' High & Low Weather Summary

 TemperatureHumidityPressure
High94 °F (Aug 25, 3:58 PM)100% (Aug 18, 1:58 AM)30.21 "Hg (Aug 18, 1:58 AM)
Low45 °F (Aug 23, 5:58 AM)11% (Aug 21, 12:58 PM)29.65 "Hg (Aug 21, 4:58 PM)
Average70 °F45%29.93 "Hg
* Reported Aug 17 2:58 PM — Sep 1 2:58 PM, Aurora, Weather by CustomWeather, © 2015

Note: Actual official high and low records may vary slightly from our data, if they occured in-between our weather recording intervals... More about our weather records

Advertising

Aurora weather history for previous 24 hours

 ConditionsComfort  
Time TempWeatherWind HumidityBarometerVisibility
2:58 PM
Tue, Sep 1
88 °FBroken clouds.6 mph18%29.85 "Hg10 mi
1:58 PM85 °FScattered clouds.8 mph21%29.87 "Hg10 mi
12:58 PM85 °FScattered clouds.2 mph21%29.88 "Hg10 mi
11:58 AM83 °FScattered clouds.5 mph22%29.91 "Hg10 mi
10:58 AM80 °FScattered clouds.5 mph28%29.93 "Hg10 mi
9:58 AM76 °FScattered clouds.7 mph37%29.93 "Hg10 mi
8:58 AM71 °FScattered clouds.8 mph47%29.95 "Hg10 mi
7:58 AM64 °FScattered clouds.9 mph60%29.95 "Hg10 mi
6:58 AM58 °FPassing clouds.5 mph72%29.94 "Hg10 mi
5:58 AM59 °FPassing clouds.10 mph73%29.93 "Hg10 mi
4:58 AM55 °FPassing clouds.5 mph86%29.95 "Hg10 mi
3:58 AM57 °FPassing clouds.8 mph86%29.90 "Hg10 mi
2:58 AM56 °FPassing clouds.8 mph91%29.90 "Hg10 mi
1:58 AM57 °FPartly cloudy.8 mph90%29.91 "Hg10 mi
12:58 AM58 °FPartly cloudy.5 mph90%29.94 "Hg10 mi
11:58 PM
Mon, Aug 31
59 °FPartly cloudy.7 mph81%29.95 "Hg10 mi
10:58 PM59 °FPartly cloudy.6 mph77%29.97 "Hg10 mi
8:58 PM62 °FPartly cloudy.3 mph79%29.98 "Hg10 mi
7:58 PM65 °FBroken clouds.6 mph71%29.97 "Hg10 mi
6:58 PM69 °FBroken clouds.7 mph59%29.96 "Hg10 mi
5:58 PM68 °FPartly sunny.8 mph56%29.98 "Hg10 mi
Weather by CustomWeather, © 2015

See weather overviewHow to use our weather pages